Location: Zagreb
(45.8000°N, 16.0000°E)
Time: 19:32:54
(UTC+02:00)

A-11 Canister half - Pass Details

Date: 11 August 2022
Orbit: 1524 x 1684 km, 47.3° (Epoch: 05 October)

Event Time Altitude Azimuth Distance (km) Brightness Sun altitude
Rises 12:49:18 0° 293° (WNW) 4,930 11.5 59.3°
Reaches altitude 10° 12:52:39 10° 288° (WNW) 3,928 11.1 59.3°
Maximum altitude 13:02:01 47° 219° (SW) 2,081 11.1 59.4°
Drops below altitude 10° 13:11:07 10° 150° (SSE) 3,806 11.6 59.3°
Sets 13:14:19 0° 145° (SE) 4,767 11.9 59.3°
